�������l�o���
Date,Time,MP-1(��Sv/h),MP-2(��Sv/h),MP-3(��Sv/h),MP-4(��Sv/h),MP-5(��Sv/h),MP-6(��Sv/h),MP-7(��Sv/h),MP-8(��Sv/h),����,����(m/s),���J
2021/07/04,00:00,0.602,0.884,0.570,1.078,0.773,0.363,0.631,0.593,�k�k��,3.3,��
2021/07/04,00:10,0.603,0.884,0.570,1.077,0.773,0.364,0.631,0.593,�k�k��,3.5,��
2021/07/04,00:20,0.603,0.886,0.568,1.080,0.772,0.363,0.631,0.592,�k�k��,3.8,��
2021/07/04,00:30,0.603,0.886,0.569,1.079,0.772,0.364,0.631,0.593,�k�k��,4.5,��
2021/07/04,00:40,0.601,0.886,0.571,1.077,0.772,0.363,0.632,0.592,�k�k��,4.9,��
2021/07/04,00:50,0.601,0.885,0.570,1.078,0.771,0.364,0.633,0.593,�k�k��,4.8,��
2021/07/04,01:00,0.603,0.885,0.568,1.078,0.774,0.364,0.632,0.593,�k�k��,4.2,��
2021/07/04,01:10,0.600,0.885,0.570,1.077,0.772,0.362,0.632,0.594,�k�k��,3.2,��
2021/07/04,01:20,0.600,0.885,0.569,1.079,0.773,0.364,0.632,0.591,�k�k��,3.7,��
2021/07/04,01:30,0.599,0.885,0.571,1.078,0.771,0.362,0.631,0.594,�k�k��,3.4,��
2021/07/04,01:40,0.601,0.884,0.570,1.080,0.771,0.363,0.633,0.593,�k�k��,4.0,��
2021/07/04,01:50,0.602,0.886,0.571,1.077,0.773,0.363,0.631,0.595,�k�k��,3.8,��
2021/07/04,02:00,0.602,0.884,0.570,1.077,0.773,0.363,0.632,0.594,�k�k��,3.7,��
2021/07/04,02:10,0.602,0.887,0.571,1.079,0.772,0.364,0.631,0.594,�k�k��,3.7,��
2021/07/04,02:20,0.602,0.885,0.570,1.078,0.773,0.363,0.632,0.593,�k�k��,3.0,��
2021/07/04,02:30,0.600,0.885,0.568,1.079,0.772,0.363,0.633,0.592,�k�k��,2.3,��
2021/07/04,02:40,0.601,0.887,0.568,1.079,0.773,0.363,0.632,0.593,�k�k��,1.5,��
2021/07/04,02:50,0.602,0.883,0.570,1.078,0.772,0.364,0.633,0.593,�k,2.0,��
2021/07/04,03:00,0.603,0.886,0.569,1.080,0.774,0.364,0.631,0.593,�k�k��,2.3,��
2021/07/04,03:10,0.601,0.885,0.570,1.078,0.773,0.363,0.631,0.594,�k�k��,2.0,�L
2021/07/04,03:20,0.601,0.886,0.571,1.079,0.773,0.363,0.632,0.594,�k,3.1,��
2021/07/04,03:30,0.602,0.886,0.571,1.078,0.773,0.362,0.631,0.594,�k,4.2,�L
2021/07/04,03:40,0.603,0.884,0.570,1.078,0.774,0.363,0.632,0.594,�k,4.0,�L
2021/07/04,03:50,0.604,0.886,0.569,1.078,0.775,0.365,0.632,0.592,�k�k��,3.3,��
2021/07/04,04:00,0.603,0.887,0.570,1.079,0.772,0.362,0.630,0.593,�k�k��,3.0,�L
2021/07/04,04:10,0.603,0.887,0.570,1.081,0.772,0.365,0.633,0.593,�k�k��,3.1,�L
2021/07/04,04:20,0.603,0.886,0.569,1.079,0.774,0.363,0.632,0.593,�k�k��,2.5,�L
2021/07/04,04:30,0.605,0.887,0.570,1.078,0.774,0.364,0.632,0.593,�k,2.6,�L
2021/07/04,04:40,0.603,0.887,0.570,1.078,0.773,0.363,0.633,0.594,�k,4.3,�L
2021/07/04,04:50,0.601,0.886,0.570,1.078,0.772,0.365,0.633,0.593,�k,3.9,�L
2021/07/04,05:00,0.604,0.886,0.570,1.079,0.773,0.364,0.633,0.595,�k,3.3,��
2021/07/04,05:10,0.603,0.886,0.570,1.078,0.772,0.363,0.631,0.594,�k��,2.3,�L
2021/07/04,05:20,0.601,0.886,0.570,1.079,0.775,0.364,0.633,0.592,�k,3.8,�L
2021/07/04,05:30,0.603,0.887,0.569,1.078,0.775,0.365,0.634,0.594,�k,4.0,��
2021/07/04,05:40,0.604,0.886,0.571,1.079,0.772,0.363,0.633,0.594,�k,2.6,��
2021/07/04,05:50,0.604,0.885,0.570,1.079,0.773,0.363,0.633,0.593,�k�k��,2.0,�L
2021/07/04,06:00,0.602,0.886,0.571,1.077,0.775,0.365,0.634,0.594,�k�k��,2.6,�L
2021/07/04,06:10,0.602,0.885,0.570,1.080,0.774,0.364,0.633,0.595,�k�k��,1.5,��
2021/07/04,06:20,0.602,0.889,0.570,1.081,0.772,0.364,0.633,0.592,�k,1.7,��
2021/07/04,06:30,0.603,0.885,0.569,1.078,0.774,0.363,0.633,0.593,�k�k��,2.2,�L
2021/07/04,06:40,0.603,0.886,0.571,1.077,0.773,0.364,0.632,0.593,�k�k��,2.3,�L
2021/07/04,06:50,0.605,0.885,0.573,1.078,0.772,0.364,0.634,0.593,�k,2.6,�L
2021/07/04,07:00,0.602,0.885,0.569,1.078,0.773,0.364,0.631,0.593,�k�k��,3.0,�L
2021/07/04,07:10,0.600,0.886,0.569,1.080,0.773,0.365,0.631,0.593,�k�k��,3.7,�L
2021/07/04,07:20,0.601,0.884,0.569,1.078,0.772,0.365,0.632,0.592,�k,2.8,�L
2021/07/04,07:30,0.602,0.884,0.570,1.081,0.773,0.365,0.631,0.593,�k�k��,3.4,�L
2021/07/04,07:40,0.603,0.882,0.569,1.078,0.772,0.365,0.632,0.593,�k�k��,2.8,�L
2021/07/04,07:50,0.602,0.882,0.569,1.080,0.770,0.366,0.631,0.590,�k�k��,2.0,�L
2021/07/04,08:00,0.601,0.882,0.571,1.079,0.773,0.365,0.631,0.591,�k�k��,2.3,�L
2021/07/04,08:10,0.602,0.881,0.570,1.079,0.771,0.367,0.630,0.591,�k�k��,2.6,�L
2021/07/04,08:20,0.601,0.881,0.570,1.081,0.769,0.365,0.630,0.590,�k�k��,2.3,�L
2021/07/04,08:30,0.601,0.882,0.568,1.081,0.770,0.368,0.630,0.589,�k�k��,1.9,�L
2021/07/04,08:40,0.602,0.879,0.570,1.077,0.767,0.364,0.629,0.590,�k�k��,1.7,�L
2021/07/04,08:50,0.602,0.878,0.570,1.076,0.766,0.366,0.629,0.589,�k,1.4,�L
2021/07/04,09:00,0.600,0.878,0.567,1.074,0.766,0.365,0.629,0.588,�k�k��,1.4,�L
2021/07/04,09:10,0.602,0.876,0.568,1.076,0.764,0.365,0.629,0.589,�k��,2.3,�L
2021/07/04,09:20,0.600,0.877,0.569,1.074,0.764,0.366,0.627,0.589,�k�k��,2.3,�L
2021/07/04,09:30,0.600,0.875,0.565,1.075,0.767,0.364,0.629,0.589,�k�k��,2.0,�L
2021/07/04,09:40,0.599,0.876,0.566,1.074,0.765,0.364,0.628,0.588,�k��,1.2,�L
2021/07/04,09:50,0.599,0.875,0.567,1.075,0.764,0.364,0.630,0.589,�k�k��,1.2,�L
2021/07/04,10:00,0.599,0.874,0.566,1.074,0.763,0.363,0.627,0.587,���k��,1.2,�L
2021/07/04,10:10,0.597,0.874,0.566,1.073,0.762,0.362,0.628,0.587,�k�k��,1.1,�L
2021/07/04,10:20,0.596,0.871,0.565,1.072,0.762,0.363,0.628,0.588,�k��,0.9,�L
2021/07/04,10:30,0.596,0.872,0.566,1.071,0.762,0.364,0.627,0.587,�k��,1.9,�L
2021/07/04,10:40,0.595,0.871,0.563,1.070,0.761,0.363,0.626,0.589,�k�k��,1.7,�L
2021/07/04,10:50,0.595,0.869,0.563,1.067,0.758,0.364,0.628,0.587,�k��,2.6,�L
2021/07/04,11:00,0.595,0.867,0.562,1.067,0.758,0.365,0.627,0.588,�k�k��,2.6,�L
2021/07/04,11:10,0.595,0.867,0.560,1.068,0.757,0.363,0.626,0.587,�k��,2.5,�L
2021/07/04,11:20,0.595,0.867,0.561,1.065,0.757,0.363,0.625,0.585,���k��,2.3,�L
2021/07/04,11:30,0.595,0.865,0.560,1.064,0.757,0.364,0.627,0.585,���k��,2.3,�L
2021/07/04,11:40,0.593,0.863,0.563,1.060,0.756,0.363,0.626,0.585,���k��,1.7,�L
2021/07/04,11:50,0.594,0.863,0.563,1.060,0.755,0.365,0.626,0.586,-,CALM,�L
2021/07/04,12:00,0.594,0.866,0.564,1.059,0.756,0.365,0.625,0.585,�k��,1.7,�L
2021/07/04,12:10,0.593,0.864,0.565,1.059,0.757,0.365,0.627,0.586,���쓌,1.2,�L
2021/07/04,12:20,0.595,0.863,0.566,1.059,0.757,0.367,0.627,0.584,��,1.5,�L
2021/07/04,12:30,0.593,0.864,0.565,1.057,0.757,0.366,0.625,0.586,��,2.0,�L
2021/07/04,12:40,0.593,0.864,0.565,1.055,0.758,0.366,0.624,0.585,���쓌,2.2,�L
2021/07/04,12:50,0.595,0.864,0.564,1.056,0.757,0.366,0.626,0.584,�쓌,2.3,�L
2021/07/04,13:00,0.593,0.864,0.563,1.055,0.757,0.365,0.624,0.585,�쓌,2.3,�L
2021/07/04,13:10,0.593,0.866,0.563,1.056,0.755,0.365,0.624,0.585,�쓌,2.3,�L
2021/07/04,13:20,0.591,0.862,0.562,1.055,0.755,0.363,0.624,0.583,�쓌,2.0,�L
2021/07/04,13:30,0.591,0.861,0.562,1.054,0.754,0.364,0.623,0.585,�쓌,2.2,�L
2021/07/04,13:40,0.593,0.860,0.561,1.056,0.753,0.363,0.623,0.584,�쓌,2.9,�L
2021/07/04,13:50,0.589,0.861,0.560,1.054,0.752,0.362,0.623,0.583,�쓌,2.0,�L
2021/07/04,14:00,0.591,0.863,0.560,1.056,0.751,0.362,0.623,0.583,�쓌,2.3,�L
2021/07/04,14:10,0.590,0.861,0.559,1.053,0.751,0.361,0.622,0.585,�쓌,2.2,�L
2021/07/04,14:20,0.590,0.862,0.559,1.052,0.752,0.361,0.624,0.584,�쓌,1.7,�L
2021/07/04,14:30,0.591,0.862,0.558,1.051,0.752,0.361,0.623,0.584,���쓌,1.9,�L
2021/07/04,14:40,0.590,0.861,0.558,1.051,0.750,0.361,0.622,0.582,�쓌,2.3,�L
2021/07/04,14:50,0.588,0.859,0.557,1.050,0.748,0.359,0.622,0.581,�쓌,2.0,�L
2021/07/04,15:00,0.588,0.860,0.558,1.049,0.749,0.362,0.621,0.583,��쓌,1.7,�L
2021/07/04,15:10,0.588,0.858,0.558,1.050,0.747,0.360,0.622,0.581,�쓌,2.0,�L
2021/07/04,15:20,0.589,0.862,0.558,1.049,0.749,0.360,0.622,0.581,�쓌,2.5,�L
2021/07/04,15:30,0.588,0.860,0.557,1.049,0.748,0.359,0.620,0.582,�쓌,1.9,�L
2021/07/04,15:40,0.589,0.860,0.557,1.051,0.749,0.359,0.622,0.583,���쓌,1.4,�L
2021/07/04,15:50,0.588,0.863,0.557,1.050,0.749,0.357,0.620,0.582,�쓌,1.7,�L
2021/07/04,16:00,0.588,0.861,0.558,1.050,0.748,0.360,0.621,0.584,�쓌,1.9,�L
2021/07/04,16:10,0.589,0.861,0.557,1.050,0.750,0.359,0.622,0.582,�쓌,2.2,�L
2021/07/04,16:20,0.587,0.860,0.557,1.051,0.747,0.360,0.621,0.583,�쓌,2.0,�L
2021/07/04,16:30,0.587,0.861,0.557,1.050,0.748,0.360,0.621,0.582,���쓌,2.0,�L
2021/07/04,16:40,0.587,0.860,0.557,1.051,0.748,0.358,0.621,0.583,�쓌,2.6,�L
2021/07/04,16:50,0.588,0.862,0.557,1.050,0.750,0.359,0.619,0.583,�쓌,2.0,�L
2021/07/04,17:00,0.587,0.861,0.558,1.052,0.748,0.361,0.620,0.582,��쓌,2.0,�L
2021/07/04,17:10,0.588,0.863,0.557,1.050,0.751,0.360,0.621,0.582,�쓌,1.5,�L
2021/07/04,17:20,0.587,0.862,0.556,1.051,0.750,0.359,0.621,0.583,��쓌,1.7,�L
2021/07/04,17:30,0.589,0.862,0.557,1.052,0.746,0.359,0.620,0.581,��,1.9,�L
2021/07/04,17:40,0.590,0.860,0.558,1.050,0.748,0.360,0.621,0.582,��쓌,1.5,�L
2021/07/04,17:50,0.589,0.862,0.558,1.050,0.747,0.361,0.621,0.582,�쓌,2.0,�L
2021/07/04,18:00,0.587,0.861,0.559,1.051,0.747,0.359,0.621,0.582,�쓌,2.9,�L
2021/07/04,18:10,0.588,0.860,0.558,1.049,0.746,0.361,0.620,0.580,���쓌,4.0,�L
2021/07/04,18:20,0.589,0.861,0.557,1.048,0.747,0.360,0.619,0.581,���쓌,1.7,�L
2021/07/04,18:30,0.587,0.861,0.558,1.049,0.748,0.361,0.621,0.582,���쓌,2.3,�L
2021/07/04,18:40,0.587,0.862,0.557,1.049,0.748,0.359,0.620,0.582,�쓌,1.9,�L
2021/07/04,18:50,0.587,0.861,0.557,1.048,0.745,0.360,0.622,0.581,�쓌,2.0,�L
2021/07/04,19:00,0.589,0.861,0.557,1.049,0.745,0.358,0.620,0.581,�쓌,2.3,�L
2021/07/04,19:10,0.589,0.862,0.556,1.050,0.746,0.358,0.619,0.583,�쓌,3.3,�L
2021/07/04,19:20,0.590,0.863,0.558,1.049,0.747,0.359,0.619,0.581,�쓌,3.1,�L
2021/07/04,19:30,0.590,0.862,0.559,1.050,0.747,0.359,0.620,0.584,�쓌,3.6,�L
2021/07/04,19:40,0.587,0.864,0.559,1.050,0.748,0.360,0.619,0.583,�쓌,3.9,��
2021/07/04,19:50,0.588,0.863,0.557,1.053,0.749,0.359,0.619,0.582,�쓌,3.6,�L
2021/07/04,20:00,0.587,0.865,0.557,1.050,0.748,0.358,0.620,0.581,�쓌,3.9,�L
2021/07/04,20:10,0.588,0.864,0.556,1.049,0.746,0.359,0.620,0.583,�쓌,3.6,��
2021/07/04,20:20,0.588,0.863,0.558,1.052,0.748,0.359,0.623,0.583,��쓌,3.6,��
2021/07/04,20:30,0.587,0.863,0.557,1.050,0.747,0.359,0.621,0.587,��쓌,3.3,��
2021/07/04,20:40,0.590,0.864,0.556,1.053,0.746,0.360,0.621,0.584,��쓌,3.8,�L
2021/07/04,20:50,0.587,0.864,0.557,1.053,0.748,0.358,0.622,0.583,��쓌,4.5,�L
2021/07/04,21:00,0.588,0.863,0.558,1.052,0.748,0.358,0.621,0.583,��쓌,3.9,��
2021/07/04,21:10,0.588,0.864,0.559,1.052,0.749,0.357,0.621,0.583,��쓌,4.8,��
2021/07/04,21:20,0.588,0.864,0.559,1.053,0.749,0.359,0.622,0.582,��쓌,4.5,��
2021/07/04,21:30,0.589,0.866,0.557,1.052,0.748,0.359,0.621,0.585,��쓌,4.3,��
2021/07/04,21:40,0.589,0.863,0.558,1.054,0.748,0.358,0.621,0.583,��쓌,4.7,��
2021/07/04,21:50,0.589,0.865,0.558,1.054,0.750,0.359,0.621,0.585,��,4.5,��
2021/07/04,22:00,0.589,0.867,0.557,1.053,0.748,0.359,0.621,0.583,��,5.0,��
2021/07/04,22:10,0.589,0.865,0.558,1.056,0.749,0.359,0.622,0.584,��,5.1,��
2021/07/04,22:20,0.589,0.867,0.560,1.055,0.752,0.359,0.623,0.584,��,4.9,��
2021/07/04,22:30,0.589,0.869,0.559,1.053,0.752,0.359,0.622,0.585,��,5.3,��
2021/07/04,22:40,0.589,0.866,0.558,1.054,0.751,0.360,0.622,0.585,��,5.3,�L
2021/07/04,22:50,0.589,0.868,0.559,1.057,0.750,0.359,0.622,0.584,��,4.7,��
2021/07/04,23:00,0.588,0.869,0.559,1.056,0.751,0.360,0.622,0.584,��,5.0,��
2021/07/04,23:10,0.589,0.870,0.559,1.056,0.753,0.359,0.623,0.583,��,4.9,�L
2021/07/04,23:20,0.588,0.871,0.560,1.055,0.753,0.361,0.622,0.585,��,3.8,�L
2021/07/04,23:30,0.589,0.868,0.560,1.056,0.752,0.360,0.622,0.585,��,5.7,�L
2021/07/04,23:40,0.586,0.865,0.557,1.051,0.749,0.359,0.621,0.583,��,5.7,�L
2021/07/04,23:50,0.585,0.858,0.557,1.046,0.742,0.359,0.619,0.582,-,CALM,�L
